Wind_Speed
12 12 12 11 11 11 11 11 11 12 12 12 12 13 13 13 13 13 14 14 14 14 15 15 15 15 15 15 15 15 15 14 14 15 16 16 16 15 14 14 13 13 13 13 13 13 13 14 14 14 15 15 15 16 16 16 16 17 17 14 12 11 11 12 14 15 17 19 19 22 24 23 20 22 25 23 20 19 17 13 13 16 15 12 14 16 17 17
13 13 13 13 13 13 13 13 14 14 14 14 14 15 15 15 15 16 16 16 16 16 17 17 17 17 18 18 18 18 17 17 16 16 18 19 18 16 14 13 13 14 14 14 14 14 14 14 15 15 16 16 16 16 16 16 16 18 17 15 17 16 15 17 19 19 20 23 22 22 25 25 22 22 26 27 24 23 21 16 15 17 17 15 16 18 19 19
15 15 15 15 15 16 16 16 16 16 16 16 16 16 17 17 17 17 17 17 17 18 18 19 19 19 19 20 20 20 19 18 18 18 18 17 15 14 13 14 15 16 17 17 16 16 16 16 17 17 18 18 18 17 18 19 18 20 20 20 21 19 19 22 22 21 20 23 24 24 24 25 24 22 26 29 27 25 22 20 17 16 18 19 20 21 23 21
17 17 17 17 18 18 18 18 18 18 18 18 18 18 18 18 18 18 18 18 18 18 19 19 19 19 19 20 20 20 20 18 19 18 16 15 14 15 16 17 18 18 18 18 17 17 17 18 18 18 19 19 20 19 19 20 19 21 25 24 22 21 22 24 23 23 22 23 25 24 24 25 24 23 26 29 30 27 21 20 20 17 19 22 23 24 25 24
19 19 19 20 20 20 21 21 21 20 20 20 19 19 19 19 18 18 19 19 19 19 19 20 20 20 20 20 20 21 19 15 15 17 16 17 17 18 18 18 19 18 18 17 17 17 17 17 17 18 19 19 21 22 20 21 20 23 28 26 24 24 26 25 24 27 25 24 25 25 26 27 27 25 25 29 33 29 20 19 21 21 23 25 25 25 25 24
22 22 22 22 22 22 22 22 22 22 21 21 21 20 20 20 20 20 20 20 20 20 20 20 20 21 21 21 21 22 19 12 13 19 20 21 19 18 19 18 18 17 16 16 16 17 17 17 18 18 20 20 22 23 22 24 23 25 28 27 27 28 29 27 26 29 27 26 27 27 28 28 29 27 26 30 34 30 23 20 21 22 23 25 26 26 25 24
24 24 24 24 23 23 24 23 23 23 23 22 22 22 21 21 21 21 21 21 21 21 21 21 21 22 21 23 22 23 22 15 14 20 22 21 19 18 18 17 17 17 16 17 17 18 18 19 19 19 21 21 22 24 24 26 26 27 30 28 29 30 30 27 27 31 29 28 29 29 30 29 29 30 29 31 32 31 26 22 21 22 22 24 26 26 26 25
25 25 25 25 25 24 24 24 24 24 23 23 23 22 22 22 22 22 22 22 22 22 22 22 22 22 22 23 23 24 24 15 14 19 19 18 18 18 18 18 18 18 18 19 19 19 20 20 20 20 21 22 23 25 26 28 28 30 32 28 28 31 31 29 29 32 31 30 30 30 31 29 28 31 34 31 28 29 26 23 23 24 24 25 26 26 27 27
26 26 26 26 26 25 25 25 25 24 24 23 23 23 23 22 23 23 23 23 22 22 22 22 22 22 23 23 24 27 23 15 14 16 16 17 18 18 19 20 20 21 20 20 20 20 20 20 20 21 22 22 26 28 28 29 28 30 32 31 31 33 33 31 31 32 31 31 31 31 30 27 26 30 35 31 27 27 26 26 25 25 26 26 27 27 28 28
27 27 27 27 27 26 26 25 25 25 24 24 24 24 24 24 24 24 24 24 23 23 23 23 23 23 24 24 26 28 23 17 17 17 18 19 20 21 22 23 23 23 22 22 21 21 22 22 23 24 24 24 28 28 28 29 29 30 32 33 33 32 33 33 33 32 31 31 31 30 28 26 24 30 35 28 26 28 28 29 28 27 27 27 28 29 29 30
28 28 28 28 28 27 27 26 26 26 26 25 25 25 25 25 25 25 26 26 25 25 25 25 25 25 26 26 28 29 23 20 21 21 21 21 22 23 24 24 25 24 24 25 24 24 24 24 25 24 24 26 28 28 30 31 31 31 32 33 34 34 35 34 35 32 29 30 29 28 29 29 28 32 34 29 28 30 28 29 31 31 29 28 29 29 29 30
29 29 29 29 29 28 28 28 28 27 27 27 26 26 26 25 25 26 26 26 26 26 26 26 26 26 27 28 28 27 25 24 24 23 23 23 23 25 25 26 26 26 27 27 26 26 26 26 26 25 26 27 28 29 32 32 31 31 31 34 36 36 36 34 33 30 27 30 31 29 30 30 31 34 35 32 32 32 30 29 31 32 32 30 30 30 30 29
29 29 29 29 29 29 28 28 28 28 27 27 26 26 26 26 26 26 26 26 26 26 27 27 27 28 28 29 28 26 26 27 26 25 24 24 25 25 26 27 27 27 27 27 27 27 26 27 27 27 27 27 27 29 31 32 33 33 32 35 38 37 36 33 31 31 30 32 33 30 26 26 32 35 32 29 31 34 34 32 32 33 33 32 32 32 31 30
29 29 29 29 29 29 29 28 28 28 28 28 27 27 27 27 27 27 27 28 28 28 28 28 28 29 29 29 28 28 28 28 27 27 26 25 26 25 25 25 25 26 26 25 26 25 25 25 25 26 26 25 26 28 30 32 33 34 32 32 33 31 30 29 32 35 33 34 34 31 28 27 29 33 31 30 33 37 36 34 33 32 32 32 32 32 31 30
29 30 30 30 30 30 30 30 30 30 30 30 29 29 29 29 29 29 29 29 29 28 28 29 29 29 31 30 29 30 29 29 27 26 25 24 24 23 23 23 23 24 24 24 24 24 23 23 24 24 24 24 25 28 30 28 29 33 28 26 25 22 23 23 27 34 34 34 35 32 28 24 25 32 34 33 35 38 38 35 33 31 29 28 28 29 29 28
31 31 31 31 31 32 32 32 32 32 32 31 31 31 31 30 30 30 29 29 29 29 28 29 28 29 30 29 29 29 29 28 27 26 25 25 25 25 25 25 25 25 24 24 23 23 23 24 24 23 23 24 24 26 25 21 23 26 23 24 23 20 23 19 19 29 35 35 36 34 32 30 32 37 36 33 33 34 33 32 30 29 27 25 25 27 27 28
32 32 32 32 32 32 32 32 32 32 32 31 31 31 30 30 29 29 29 28 28 28 29 29 29 30 31 29 30 30 28 28 27 26 24 24 24 24 23 22 21 21 22 23 24 26 27 27 26 24 23 24 25 24 19 15 19 20 19 23 22 19 21 20 22 31 37 36 33 31 35 40 39 36 35 33 32 32 32 31 30 30 29 25 24 24 23 24
30 30 30 30 30 30 30 30 30 30 30 29 29 29 29 28 28 27 27 27 28 28 29 29 28 29 28 27 28 28 26 25 25 23 22 22 22 22 22 21 22 24 26 28 30 30 28 28 27 23 23 27 28 26 23 21 22 21 21 23 23 23 25 25 28 32 35 35 30 28 34 38 34 31 33 32 30 34 35 34 34 33 26 18 17 19 21 23
29 29 29 29 29 28 28 28 28 28 28 27 27 27 27 27 27 27 27 27 27 27 27 28 27 26 24 25 26 27 26 26 26 26 26 26 27 27 28 29 30 31 32 32 32 31 28 29 28 24 25 29 28 28 30 29 25 23 25 27 28 31 31 31 34 35 33 33 34 34 36 36 33 34 35 34 33 34 33 32 31 24 15 15 21 25 27 28
29 28 28 28 28 27 27 27 27 27 27 27 27 27 27 28 27 28 29 28 27 27 27 28 29 28 28 29 30 29 29 29 29 29 29 30 30 32 33 33 34 34 33 31 30 31 29 27 27 27 30 28 23 24 26 26 25 24 27 31 32 31 31 34 37 34 29 31 35 35 35 36 36 37 38 37 32 26 27 24 17 13 16 24 30 30 28 26
29 29 29 28 28 27 27 27 27 27 27 27 27 27 28 29 27 28 31 30 27 27 28 28 30 31 30 31 31 28 29 29 30 30 29 31 31 33 35 35 34 34 32 30 29 29 28 27 26 28 29 26 22 23 24 26 28 28 29 31 29 29 32 37 34 27 25 30 33 32 34 37 37 41 38 27 17 16 22 19 14 19 26 26 26 24 23 23
29 29 29 28 27 27 26 26 26 26 26 26 26 26 27 27 27 28 31 32 30 28 27 29 30 31 30 31 31 28 29 30 30 30 30 31 32 33 36 35 34 33 31 30 29 27 28 29 29 28 25 23 25 26 25 27 29 30 31 29 27 29 33 31 23 20 24 29 33 33 34 38 38 34 20 6 10 20 24 21 22 28 27 22 22 22 21 21
29 29 28 27 27 26 26 26 26 26 26 26 26 26 25 25 26 27 28 32 33 29 27 29 30 30 29 31 31 29 31 31 31 33 31 31 33 34 36 36 34 32 31 32 31 28 24 21 22 27 26 25 27 28 26 27 29 31 31 27 25 28 27 22 17 17 22 29 35 33 33 36 29 14 1 1 18 27 22 20 25 26 24 22 23 21 19 16
30 29 29 28 27 26 26 26 26 25 24 24 25 24 24 24 24 26 27 31 34 31 28 29 30 30 30 31 30 29 32 32 33 36 32 32 35 35 35 36 33 32 33 34 33 32 29 22 23 29 29 27 26 25 24 25 27 26 25 24 24 26 23 21 21 22 25 29 27 23 25 24 11 4 5 10 21 22 13 17 24 23 21 20 20 16 14 12
30 29 29 28 27 27 26 27 25 24 23 23 24 23 23 24 24 25 26 30 34 32 29 29 28 27 26 27 28 29 32 32 33 35 33 33 35 35 35 35 33 31 30 31 29 30 30 27 27 26 23 20 20 19 16 18 25 22 19 21 23 24 23 23 24 25 25 19 11 13 18 12 6 11 15 13 17 16 12 18 21 20 17 15 14 11 10 10
30 29 28 27 26 26 26 26 24 23 23 23 24 24 24 24 23 24 25 27 30 27 23 20 18 16 15 15 19 21 24 26 27 29 30 31 32 32 32 32 32 29 26 27 26 26 26 24 22 19 16 14 15 15 12 14 21 20 19 21 21 22 23 24 25 24 20 14 16 19 14 11 16 17 13 11 13 8 15 17 15 14 11 9 9 9 10 9
30 30 28 27 26 26 26 26 25 24 25 25 25 25 25 24 24 23 21 19 19 15 10 9 9 9 7 6 9 10 10 11 12 14 17 20 22 23 23 24 25 24 22 22 21 21 22 20 18 17 15 14 14 14 12 13 17 19 20 22 21 22 24 25 26 25 22 23 27 20 8 13 20 13 7 10 9 6 14 13 9 6 4 6 7 7 7 7
32 32 30 29 29 28 28 28 27 26 27 27 26 26 25 24 24 23 15 9 8 5 5 7 7 6 4 4 5 5 5 5 4 4 6 8 10 11 13 15 17 18 18 17 18 18 20 20 19 19 18 17 18 17 15 14 16 19 22 23 22 23 24 25 26 26 25 24 18 8 4 9 15 10 6 8 3 9 13 12 8 5 4 4 6 6 5 5
33 34 33 33 32 32 31 31 29 28 28 27 27 26 26 25 25 20 11 6 6 5 7 9 10 8 6 7 7 6 7 8 7 7 8 8 9 10 11 11 13 16 16 17 19 20 21 22 21 20 19 20 20 18 17 17 18 20 23 24 23 23 25 26 26 25 21 17 15 13 11 9 12 11 6 3 5 11 13 12 7 5 4 4 6 9 12 13
35 36 36 36 34 31 30 28 26 26 26 27 27 27 27 26 22 14 9 8 6 6 8 9 12 13 11 10 10 10 10 11 11 10 10 10 10 10 11 12 13 16 17 19 22 22 22 23 21 20 20 20 19 18 17 17 18 20 21 23 24 25 26 24 21 17 12 12 15 13 14 10 7 4 3 4 8 11 12 13 9 5 6 8 10 14 17 19
34 34 34 32 29 26 25 25 25 26 27 28 28 27 26 23 18 11 7 10 10 10 12 11 12 15 14 13 12 11 11 10 10 10 9 10 11 11 12 12 13 15 17 20 23 22 22 23 21 20 19 18 18 19 21 22 22 22 23 23 22 20 17 14 10 7 7 9 8 5 10 12 9 6 4 7 11 13 13 15 14 13 16 18 20 22 22 23
30 29 28 28 27 27 27 27 28 27 27 27 25 25 22 18 18 17 12 10 8 8 12 11 12 16 15 13 11 9 8 7 8 10 11 12 14 16 16 13 13 15 15 16 17 18 22 25 26 26 27 26 25 23 26 28 26 24 24 22 15 10 9 9 6 6 8 8 6 5 6 10 16 17 14 13 13 16 19 22 23 23 24 26 26 27 28 29
27 27 28 28 28 28 27 26 26 24 23 22 20 20 20 14 12 18 18 15 9 5 7 7 9 12 12 9 8 8 10 12 13 13 14 17 19 21 22 20 20 18 17 18 19 20 21 23 25 26 27 25 23 21 21 22 21 19 20 17 10 7 8 7 7 8 11 10 9 11 11 10 15 18 17 21 24 26 31 35 32 24 22 26 30 34 37 39
27 28 28 27 26 25 25 23 22 21 18 18 19 19 21 17 11 12 16 18 15 12 11 9 11 11 11 10 13 15 15 16 18 19 20 22 24 26 24 24 24 21 20 22 22 19 16 16 18 17 16 17 18 19 18 19 20 22 24 20 14 13 11 8 7 7 10 12 11 10 7 7 10 11 10 15 21 26 32 35 30 25 29 36 40 42 41 40
26 25 23 21 20 21 22 23 22 20 18 19 20 20 23 23 16 12 14 15 17 18 17 15 15 16 17 20 23 22 19 18 21 23 23 23 25 25 23 21 21 20 19 18 14 13 14 16 18 15 13 16 19 19 18 19 20 21 23 21 19 21 20 15 15 17 17 16 13 13 14 16 20 21 22 22 23 26 29 30 31 34 39 39 36 36 35 34
23 23 21 19 19 20 22 24 24 22 21 21 21 25 32 31 19 12 12 14 16 19 19 18 19 21 21 22 23 23 20 19 20 20 21 23 24 25 27 26 25 24 23 21 18 16 15 16 19 17 14 15 17 16 15 16 15 14 15 17 19 24 24 18 18 21 19 13 13 19 23 26 26 23 25 28 28 29 29 29 30 31 31 30 29 31 33 34
24 24 23 21 21 22 24 26 26 26 26 25 27 33 38 36 29 23 19 17 15 15 17 17 17 18 15 13 15 17 15 14 15 15 18 20 18 20 23 21 21 23 23 23 22 20 20 24 28 28 25 25 26 25 22 21 22 20 19 21 22 20 20 19 14 13 13 10 12 20 25 26 22 16 17 21 23 27 27 25 24 23 22 23 25 27 29 29
25 26 26 24 23 25 26 28 29 29 28 30 35 38 37 35 33 31 29 26 20 17 18 19 17 17 16 15 16 16 14 12 12 13 15 16 14 15 16 16 18 21 22 22 21 18 19 23 27 30 29 25 23 25 25 23 24 26 27 27 24 16 15 17 12 8 9 9 9 16 23 25 24 22 21 20 22 27 25 20 18 17 17 19 21 21 21 21
25 27 28 26 25 27 27 28 30 29 28 31 36 37 37 37 34 33 32 30 26 23 23 23 21 19 20 20 19 20 20 18 16 16 16 15 14 12 12 13 14 15 15 16 16 17 17 16 19 24 26 21 17 20 22 20 21 24 26 28 28 24 21 21 18 12 9 9 8 11 14 17 22 25 25 23 21 20 17 15 15 16 17 19 20 20 21 23
27 29 31 28 27 29 29 28 29 31 31 34 36 35 36 36 35 35 33 29 28 28 27 26 24 22 22 21 20 21 22 22 22 20 19 19 18 17 16 17 18 18 19 19 19 20 19 17 19 22 24 22 18 17 18 19 19 20 21 22 24 25 24 23 24 25 20 10 6 8 10 15 22 25 29 31 24 19 19 19 20 21 21 21 22 24 27 29
30 33 35 32 30 31 31 31 34 36 37 37 38 37 36 36 36 37 35 32 31 30 30 30 28 27 26 25 24 23 23 26 26 23 22 23 22 22 22 23 23 23 23 23 22 20 19 19 20 21 22 26 26 22 20 21 22 22 21 20 20 22 22 18 16 25 29 19 12 11 10 16 26 29 32 33 27 24 24 22 24 26 27 28 28 27 28 28
35 37 37 35 34 34 35 37 39 39 39 40 41 38 36 38 39 38 36 35 34 33 33 33 33 32 31 31 30 27 26 29 30 27 26 25 24 24 25 25 24 22 22 23 23 24 25 23 24 27 29 33 35 32 30 29 29 30 29 29 29 27 27 21 13 16 23 20 20 18 13 18 30 35 35 34 34 36 35 31 30 30 31 31 30 29 30 32
39 40 39 38 38 37 37 39 40 40 41 43 42 38 36 36 35 33 33 32 31 31 31 30 31 31 30 28 27 26 26 27 29 30 28 27 26 26 27 28 27 26 25 25 24 25 25 21 22 25 25 27 29 29 31 33 32 32 32 32 33 32 32 28 22 21 18 16 19 17 10 15 25 30 34 36 36 38 38 36 32 30 30 31 33 36 39 41
41 40 40 40 39 37 38 41 42 42 44 42 37 36 35 34 32 32 30 27 26 26 27 28 28 27 27 26 25 27 26 22 22 24 24 23 24 25 25 25 24 24 23 22 21 21 19 15 14 12 11 14 17 17 21 22 19 20 21 21 24 26 27 26 26 24 17 17 23 16 9 16 23 24 28 31 30 30 31 32 32 31 35 39 43 47 48 50
38 37 37 37 36 36 38 41 40 39 39 37 34 33 32 30 31 33 29 27 27 26 26 27 26 26 26 26 25 27 27 23 22 23 24 24 24 24 25 24 24 25 24 23 24 23 20 19 18 13 7 8 10 11 14 14 12 14 17 20 22 25 28 29 28 23 15 16 20 15 14 24 26 22 23 27 30 32 32 34 36 39 43 48 51 52 52 54
34 33 35 34 33 35 37 38 37 36 34 31 30 32 32 28 27 30 30 29 28 27 28 27 26 25 26 27 26 26 26 25 23 24 28 28 25 25 26 26 26 26 26 25 25 24 25 26 28 26 23 22 23 24 27 26 25 24 25 28 30 31 32 31 28 25 23 21 21 24 32 38 38 39 40 37 35 35 37 42 45 48 50 50 50 50 51 52
31 33 35 34 31 32 36 38 37 36 34 29 28 30 30 25 22 24 28 28 26 27 28 28 27 25 25 25 23 23 27 26 23 25 30 29 28 28 27 28 29 28 29 29 27 25 25 25 27 28 29 29 29 30 31 30 30 28 27 28 30 30 31 33 34 33 28 23 23 30 37 37 37 44 48 44 38 38 43 49 51 52 52 51 51 51 52 52
31 33 33 33 31 30 33 35 34 35 35 31 29 28 25 21 20 21 25 26 26 26 26 26 28 28 27 25 21 21 26 25 22 23 26 27 27 27 25 26 27 28 28 26 25 24 22 23 27 28 29 31 31 31 30 28 28 28 27 28 31 33 35 39 40 35 28 25 27 30 33 36 40 45 48 49 48 46 48 50 51 52 53 53 52 51 50 50
32 32 31 32 34 33 32 32 29 30 33 32 30 30 26 21 18 19 22 25 26 26 25 23 24 26 26 26 24 22 22 20 16 18 21 22 24 24 23 22 23 26 27 26 26 26 23 24 27 27 29 33 36 37 34 28 27 28 29 29 30 35 39 39 36 33 30 33 35 35 39 47 52 51 48 47 47 48 49 49 49 49 49 49 48 46 46 45
31 31 30 31 32 32 32 32 29 28 30 30 31 33 30 26 22 20 22 26 26 23 21 20 21 23 23 24 25 25 25 23 21 22 23 24 24 24 23 22 24 28 30 30 29 26 23 22 23 25 28 31 36 36 29 23 25 28 30 32 37 42 43 38 34 32 31 36 41 43 46 49 49 45 42 41 41 43 44 44 45 45 44 43 42 42 42 42
29 29 28 28 30 29 28 30 30 29 29 29 31 31 29 29 28 22 22 27 28 24 22 21 23 24 25 26 27 27 28 29 29 29 30 30 30 30 30 29 31 32 33 33 29 26 24 24 26 27 26 29 35 32 23 23 27 30 36 43 48 48 44 38 35 34 35 40 45 45 43 40 38 37 36 36 37 39 41 42 43 42 40 39 38 38 39 39
27 27 27 27 28 28 28 28 29 30 31 31 31 30 29 30 29 25 23 25 28 29 28 28 28 27 28 29 30 31 31 32 32 32 34 35 35 35 35 35 35 34 32 30 27 25 23 22 24 22 18 23 31 30 26 24 20 26 42 50 48 46 44 40 39 40 43 44 43 40 37 35 33 33 35 35 37 41 42 41 39 37 36 35 36 36 37 36
Wind_Direction
267 269 270 271 273 275 276 279 280 282 283 283 285 285 286 286 286 287 288 289 289 291 292 293 294 295 296 297 298 298 299 302 304 306 306 304 306 307 307 307 305 305 306 307 309 309 309 307 306 307 305 305 304 305 304 303 304 299 299 292 267 269 273 269 285 294 290 290 293 294 297 300 302 303 301 298 298 298 297 299 303 297 293 292 286 285 290 293
264 266 269 270 272 274 275 277 278 279 280 281 283 283 283 283 284 284 284 285 286 287 288 289 290 291 293 294 294 294 296 298 300 301 300 301 303 305 306 307 306 306 307 308 308 308 306 305 305 304 303 303 302 302 301 300 300 296 294 279 272 284 282 279 290 295 294 294 294 293 297 300 302 302 298 296 298 299 298 302 305 297 295 292 284 281 283 289
264 265 267 269 271 272 274 274 276 276 277 278 279 279 280 280 281 281 282 282 283 284 284 285 285 287 289 290 291 292 294 297 300 299 297 297 298 301 303 303 303 303 303 303 303 304 301 301 301 300 299 298 297 298 296 296 298 293 285 277 285 294 287 290 297 296 293 291 292 294 296 298 300 300 295 296 297 296 298 304 301 292 295 295 290 284 283 287
265 266 268 269 270 272 273 273 275 275 276 276 276 277 277 277 278 279 280 280 281 282 282 283 284 285 286 287 290 290 293 300 299 297 296 294 294 297 299 299 298 298 298 298 299 298 297 297 297 296 297 295 294 295 292 293 296 288 285 287 292 290 285 293 298 294 292 291 293 295 296 297 297 297 296 297 296 294 301 306 299 291 290 290 287 284 284 288
267 268 269 270 272 273 274 274 275 276 276 276 276 276 276 276 277 278 279 279 281 282 282 284 285 286 286 287 289 289 294 302 297 293 293 291 293 294 293 293 292 293 293 294 296 294 294 294 294 294 294 294 293 295 293 291 292 286 287 293 292 289 289 294 295 292 292 293 293 295 296 295 294 294 296 295 291 292 300 299 294 291 287 286 283 281 282 285
269 270 271 272 273 274 275 276 277 278 278 278 278 278 278 278 278 278 278 279 280 281 282 284 285 286 287 287 288 288 288 289 290 289 288 288 290 289 287 287 286 287 288 290 292 291 292 291 291 292 291 291 290 292 292 289 291 288 289 292 293 292 291 293 293 291 293 295 294 296 294 293 295 294 293 290 288 291 297 296 292 286 281 280 280 281 282 282
271 271 272 272 273 274 275 276 277 279 279 280 281 281 281 281 281 281 280 281 281 282 282 283 284 285 286 286 287 286 283 284 287 284 285 288 288 285 284 283 282 283 284 287 287 287 288 287 289 290 288 289 288 288 287 288 291 288 287 290 290 289 289 293 292 291 295 295 295 295 292 293 295 294 288 283 286 293 298 299 293 285 281 279 279 281 282 280
272 272 272 273 273 274 275 276 277 277 278 279 280 280 281 282 282 282 282 283 283 284 284 284 285 285 286 286 286 284 284 290 286 279 285 288 286 286 284 284 283 284 285 286 285 285 285 285 287 286 285 287 285 284 285 289 290 288 289 290 289 288 291 294 293 293 296 297 296 295 294 295 297 294 286 282 287 293 297 297 290 286 285 282 281 282 281 279
272 272 273 274 274 275 275 276 276 276 277 278 278 279 279 280 281 281 282 283 283 284 285 285 285 286 286 286 287 284 285 295 286 280 286 285 286 287 286 287 287 287 287 286 285 285 284 285 283 281 283 284 282 284 287 288 287 287 290 291 291 292 295 297 296 297 299 301 299 295 295 296 295 290 285 289 296 294 295 294 291 288 285 284 282 281 280 279
271 272 273 274 274 275 275 275 276 276 277 277 278 279 280 280 281 282 282 282 283 283 284 284 284 285 285 285 285 282 287 293 286 283 282 281 283 283 284 286 286 286 285 284 283 282 282 281 280 282 284 282 282 285 286 285 285 286 288 291 293 294 296 298 298 299 302 301 299 299 298 294 292 288 287 297 301 296 296 295 294 290 285 284 282 280 280 280
270 271 272 273 273 274 275 275 276 276 277 278 278 279 280 281 282 282 283 283 283 283 283 283 283 283 283 282 281 283 289 289 285 283 280 279 280 280 281 281 281 282 281 280 279 278 279 278 279 282 282 282 285 288 286 286 287 288 289 291 293 295 296 297 297 300 304 300 297 302 300 294 292 289 292 301 299 294 295 295 296 295 291 287 285 284 284 284
270 270 271 272 273 274 274 275 276 277 277 278 278 279 280 280 281 281 282 282 283 283 283 283 283 283 283 281 280 285 290 287 285 284 282 281 280 279 280 279 279 278 277 278 276 277 277 277 279 278 278 282 285 286 287 289 289 289 292 293 294 296 295 296 298 300 304 299 298 303 301 297 296 294 300 305 302 299 299 297 296 296 297 296 294 293 291 289
270 270 271 272 273 273 274 275 275 276 276 277 277 277 278 279 279 280 280 281 281 281 281 281 282 282 281 282 283 286 286 285 285 285 285 284 281 280 279 278 278 277 276 276 276 277 275 276 277 276 278 281 282 282 286 290 289 289 293 294 295 298 297 298 299 300 302 297 298 302 295 293 297 297 301 303 300 302 302 299 297 298 300 300 299 297 295 293
269 270 270 271 272 272 273 273 274 274 275 275 276 276 277 277 278 279 279 279 280 279 279 279 279 278 278 280 283 284 283 284 285 285 285 283 281 280 279 278 277 276 276 276 276 276 275 276 275 276 278 279 282 283 286 287 286 291 295 292 295 298 297 302 302 302 303 299 303 305 294 295 301 299 301 302 302 302 302 302 301 301 302 301 300 298 295 293
268 269 269 270 271 271 272 273 273 274 274 275 275 276 276 276 276 277 278 278 279 278 278 278 277 277 276 277 280 281 281 282 283 284 283 282 281 279 278 277 275 275 275 275 276 275 276 277 275 277 278 281 283 283 284 283 286 295 292 287 293 291 290 302 303 303 306 302 306 306 295 294 300 300 301 303 303 303 305 307 307 307 305 302 301 300 296 290
266 267 268 269 270 271 272 273 273 274 274 275 275 275 275 276 276 276 277 278 278 279 278 278 277 276 276 277 278 278 279 280 281 280 280 280 279 277 276 274 273 272 271 273 274 275 277 277 278 278 278 282 283 282 283 280 285 291 281 278 288 286 288 297 295 300 303 301 304 304 298 297 300 302 302 301 303 306 308 311 312 311 311 308 304 299 293 288
266 267 268 269 270 271 272 272 273 273 273 274 274 274 274 274 275 276 277 278 278 279 278 277 277 276 276 277 277 276 277 279 279 279 279 279 277 275 272 270 268 265 267 271 274 277 278 278 278 277 278 280 278 274 273 270 278 285 278 278 286 287 290 295 295 300 303 302 304 301 298 300 304 307 307 309 313 315 314 314 313 312 312 310 301 294 290 289
266 268 268 269 269 270 271 272 273 273 273 273 274 274 274 275 275 275 277 277 278 278 278 277 276 275 276 278 277 276 277 277 277 277 278 278 276 273 270 268 268 268 272 274 276 277 277 277 276 274 276 279 275 270 266 271 282 289 286 283 287 288 287 290 293 298 302 301 298 293 293 298 302 304 307 314 317 314 313 313 310 308 311 309 293 290 293 292
267 268 269 269 270 271 272 273 273 274 274 275 275 276 277 277 277 278 277 277 277 278 277 276 274 271 271 274 273 273 274 274 273 273 273 274 273 271 271 271 272 273 275 277 277 275 276 276 273 268 272 276 277 278 281 284 285 285 284 281 284 287 287 289 292 299 303 295 292 294 295 298 302 305 310 316 316 314 315 308 302 304 309 302 290 289 293 292
268 268 269 270 271 272 273 274 274 274 275 276 278 279 279 279 279 279 277 276 276 276 275 275 274 271 269 269 269 270 271 270 270 269 269 269 269 270 270 270 272 273 274 276 276 276 279 275 268 269 277 280 276 277 283 282 278 279 280 280 282 284 285 291 297 303 302 291 293 298 299 301 305 309 314 317 317 322 324 309 296 307 307 300 294 290 291 286
268 268 269 270 271 273 273 274 274 274 275 276 277 278 279 280 280 279 279 279 277 276 276 275 275 274 273 272 270 270 270 268 267 266 266 266 266 268 269 269 271 274 275 274 274 278 278 268 264 276 287 289 277 271 272 272 276 278 278 280 281 280 285 293 299 301 297 292 296 301 301 302 308 312 314 319 324 332 331 316 296 304 304 296 291 287 284 274
268 268 269 270 272 272 273 272 272 273 275 275 276 276 276 278 280 280 282 282 279 277 277 276 276 277 277 275 274 273 269 268 267 266 265 265 265 266 268 270 272 274 274 274 277 279 276 273 278 288 292 287 280 280 278 276 278 278 277 277 277 282 290 297 300 299 298 296 298 304 303 306 314 317 319 351 338 324 325 317 297 295 294 281 275 276 273 266
269 269 270 270 270 270 270 270 270 272 273 274 275 275 276 277 279 281 283 283 282 280 278 278 278 278 277 275 274 272 268 267 266 264 262 262 264 264 266 270 273 275 274 275 280 277 271 276 289 294 291 285 283 283 282 280 278 277 277 274 274 284 290 293 295 294 294 295 300 306 307 313 320 322 0 0 319 324 328 310 289 282 280 269 263 264 264 262
269 269 269 268 268 268 268 268 268 269 271 272 273 274 275 276 278 281 283 285 285 283 281 281 280 279 276 272 271 266 263 263 260 260 260 259 261 262 266 270 274 276 278 281 285 280 273 272 280 287 288 286 282 279 280 281 278 275 275 275 282 289 286 285 289 289 293 297 301 308 313 318 318 292 289 293 314 331 321 282 277 278 277 265 257 255 252 248
266 265 265 265 265 265 265 266 267 268 269 270 272 274 275 278 280 282 287 291 291 290 289 287 284 280 273 267 264 259 257 257 256 258 260 259 260 263 266 269 273 276 279 282 282 278 278 279 283 286 284 283 279 276 281 278 275 274 270 278 290 294 291 289 289 292 301 302 293 309 320 315 293 289 284 288 322 329 282 266 276 279 271 251 240 232 226 233
263 262 262 263 262 261 263 265 267 270 270 271 274 276 277 280 282 285 293 297 295 295 295 290 283 275 269 260 254 253 254 257 258 258 260 260 260 262 265 267 270 271 271 275 275 272 277 285 289 286 280 278 273 278 286 270 269 271 272 282 288 288 289 288 290 294 299 297 289 299 304 287 298 298 272 295 335 302 259 269 279 275 257 230 214 204 206 219
261 261 261 262 261 260 262 265 267 268 269 271 274 276 278 280 282 288 298 300 291 289 291 277 254 246 258 251 236 236 242 252 257 255 256 259 259 260 261 263 268 270 270 271 272 276 283 287 288 284 282 280 274 280 289 274 266 267 274 283 283 283 285 285 291 293 293 297 296 295 282 275 297 299 263 309 330 242 244 257 261 254 221 216 211 203 204 214
261 262 263 263 262 261 262 263 265 266 267 271 273 275 276 277 280 286 296 296 275 272 276 250 217 208 221 204 202 202 208 226 238 247 253 256 258 260 260 262 268 274 278 272 264 271 284 286 285 286 285 284 283 285 288 280 270 269 276 281 280 281 283 285 290 292 296 300 292 272 222 267 292 291 281 304 254 203 225 227 228 225 204 236 237 242 264 268
261 264 265 265 262 261 262 261 262 263 264 267 270 272 272 273 277 280 273 257 258 269 272 247 219 218 213 201 219 229 231 242 247 256 264 266 272 276 276 280 279 278 283 281 274 276 284 287 287 287 285 284 287 290 291 281 273 279 287 286 284 285 287 290 292 293 295 288 273 260 243 261 296 287 275 292 189 194 221 218 192 189 217 269 270 278 289 286
260 261 260 258 256 256 256 256 258 261 263 264 266 267 268 269 270 263 235 230 255 280 271 241 223 233 233 226 239 245 243 250 256 261 266 269 276 279 283 288 285 285 290 288 286 287 288 287 283 283 285 285 287 292 294 290 286 291 292 289 292 294 295 297 294 294 290 273 277 267 232 235 297 291 220 253 214 193 220 229 214 225 269 290 292 292 290 285
254 254 252 250 249 251 252 255 260 264 264 263 264 264 264 262 250 230 221 239 256 272 263 242 224 230 239 241 243 247 249 252 256 259 263 272 277 280 289 293 289 292 296 294 294 292 288 286 285 288 291 291 292 294 293 292 292 292 289 289 294 297 293 283 269 265 263 270 287 254 210 221 246 250 237 252 232 211 222 237 244 269 286 288 288 289 291 289
244 245 246 247 250 255 258 262 264 263 260 258 259 257 250 243 231 219 223 246 262 270 259 245 230 230 236 240 235 236 249 257 259 261 267 278 284 287 291 293 290 292 292 291 293 290 284 283 285 288 288 286 289 290 288 290 290 288 285 283 285 289 281 260 240 246 259 270 282 274 253 239 247 258 259 255 253 239 231 243 262 277 279 275 279 287 292 290
243 244 247 248 251 255 259 263 262 256 251 246 242 235 226 225 229 221 222 233 239 255 258 231 215 217 218 229 246 259 275 283 278 273 277 283 290 293 293 291 288 285 283 283 286 289 288 285 283 282 282 282 281 279 281 288 289 285 282 275 261 267 279 271 270 272 267 271 286 291 288 268 266 274 262 247 248 246 242 251 264 273 272 270 275 282 282 279
256 256 257 256 255 256 256 259 255 244 232 224 219 217 218 223 233 228 226 228 229 241 249 224 212 215 220 248 275 281 285 287 279 274 279 283 286 287 287 287 287 283 281 281 282 284 282 282 282 277 273 275 278 278 279 281 280 279 278 268 250 251 262 270 274 271 278 287 293 290 278 270 282 290 273 247 242 243 244 249 255 264 273 277 276 273 272 270
257 257 257 256 256 256 254 253 250 237 221 217 216 217 225 230 236 239 235 231 232 238 237 228 232 244 253 264 271 274 275 276 274 275 276 276 276 276 276 276 277 276 275 275 279 281 275 277 280 275 271 275 280 280 276 273 272 272 268 256 245 250 254 259 265 268 284 295 284 267 258 266 278 281 278 269 256 249 249 254 262 270 275 275 269 265 266 266
249 247 247 248 248 249 247 246 246 239 229 225 222 227 235 238 238 237 239 238 234 232 232 237 248 256 264 268 270 274 275 269 269 271 268 268 269 269 270 270 270 269 269 266 268 274 274 272 270 271 275 277 278 277 269 262 261 261 257 248 250 257 257 259 270 272 276 280 269 265 266 270 276 274 267 263 262 261 263 269 273 271 267 264 261 262 262 262
248 245 244 245 243 240 239 241 242 239 235 229 226 233 240 241 240 238 240 241 233 227 233 242 249 254 261 267 272 281 279 266 266 263 260 266 267 267 268 268 267 264 262 262 263 262 263 266 267 270 274 274 274 275 269 260 256 254 252 257 264 267 260 258 266 270 264 261 261 260 263 270 273 267 261 262 268 272 272 273 272 263 255 254 256 255 255 257
252 250 246 243 243 241 239 240 239 237 236 232 232 237 241 243 243 242 244 244 243 243 242 242 246 255 261 263 268 275 271 261 264 262 258 259 262 268 266 258 258 259 257 260 261 256 257 265 271 272 273 272 269 269 267 261 258 255 253 258 263 264 262 257 255 262 259 259 260 253 255 262 263 265 271 272 274 276 272 263 256 249 241 241 243 245 250 258
254 255 253 248 247 248 246 244 243 240 235 232 235 239 241 243 243 245 247 248 249 250 248 247 251 258 263 263 264 269 267 262 261 260 259 255 255 265 263 251 253 257 254 255 257 256 255 260 268 267 268 270 263 259 261 262 263 260 256 256 256 257 261 259 254 256 258 261 266 256 253 256 259 266 274 274 272 270 260 244 238 236 232 236 242 249 259 267
255 257 256 252 250 252 254 252 250 248 244 242 241 241 244 248 249 250 251 251 252 253 254 257 257 257 261 262 262 264 263 262 259 254 252 251 252 259 261 258 259 261 262 262 263 264 258 253 257 260 263 269 265 254 255 261 264 262 255 251 252 256 259 258 255 253 252 256 269 264 258 258 260 267 272 272 271 263 255 251 249 248 248 255 262 267 272 277
259 258 258 256 254 253 254 252 252 252 252 253 252 250 251 255 256 256 256 256 256 258 262 264 263 261 261 260 261 261 260 262 261 255 251 250 252 257 261 262 264 265 265 266 264 262 260 257 259 261 263 266 266 262 262 263 262 259 256 252 254 261 265 265 260 254 252 250 253 259 263 260 261 266 268 270 272 269 264 262 263 270 277 282 284 284 284 285
261 260 259 258 257 255 253 252 254 255 254 256 258 257 256 256 258 260 262 263 263 266 267 267 265 264 263 264 265 263 261 262 262 258 256 256 256 258 260 261 262 261 261 265 265 263 266 270 270 270 269 269 271 273 273 271 266 260 260 262 264 267 266 261 261 266 261 257 256 258 260 260 263 266 267 268 272 274 275 278 283 285 286 287 289 292 293 293
262 261 260 259 259 257 253 251 252 251 252 256 259 258 256 258 259 261 262 263 264 264 264 263 264 265 263 263 262 259 258 260 261 261 262 263 264 261 260 261 261 260 262 266 267 267 270 272 271 272 274 274 276 277 275 274 270 262 262 265 262 260 257 253 259 272 272 268 268 265 260 263 266 269 272 273 275 274 276 280 285 287 287 290 294 296 298 298
261 260 259 258 256 252 248 248 249 249 251 253 253 253 254 256 257 258 258 257 257 257 259 260 261 260 259 258 258 256 255 256 260 263 263 263 262 261 262 262 260 259 261 264 266 270 272 268 268 278 285 282 281 277 271 272 267 258 257 255 250 254 260 262 271 278 273 265 265 261 260 269 271 274 274 272 271 268 270 275 280 285 291 297 300 300 299 299
256 255 254 252 250 246 245 246 247 247 250 250 248 250 252 252 254 255 254 254 254 254 256 257 255 253 255 256 256 255 255 254 258 261 263 264 264 263 264 263 261 262 263 265 267 269 269 266 268 272 273 269 270 266 266 273 280 275 268 262 264 274 278 278 281 281 272 265 263 259 269 272 270 272 271 272 275 275 276 280 283 287 293 298 300 299 298 297
248 246 245 244 241 241 244 245 244 243 244 244 245 248 249 248 251 255 254 253 252 249 250 252 252 252 252 251 252 256 256 255 256 259 263 266 268 267 265 265 267 267 266 266 265 265 267 268 268 268 266 265 267 268 270 276 282 284 280 276 276 279 278 276 273 266 265 276 276 269 273 276 276 277 276 276 282 286 285 286 288 291 295 297 296 295 295 295
241 240 241 240 235 236 240 241 241 241 241 240 241 246 247 245 245 250 252 253 250 247 245 245 246 248 250 251 252 256 258 257 256 259 262 263 265 266 266 266 267 267 267 268 268 268 270 270 268 269 269 269 271 272 274 276 278 279 278 276 274 274 274 271 266 265 270 280 277 272 276 278 278 278 277 278 283 287 289 290 293 296 297 296 295 294 293 293
238 238 239 239 236 235 239 241 242 241 240 238 238 243 245 243 240 241 247 251 250 248 246 244 245 246 248 250 251 254 257 258 257 256 258 260 261 262 264 266 267 268 269 269 272 274 275 272 271 271 271 271 272 272 273 273 274 275 273 272 272 272 271 269 269 271 272 268 267 272 276 276 278 281 283 284 285 286 288 291 294 294 294 293 292 291 291 291
236 238 238 237 238 240 242 247 249 245 240 237 238 242 243 241 237 234 240 247 250 250 250 247 248 248 246 245 245 245 247 248 246 246 249 254 258 261 265 266 267 269 271 274 280 283 282 278 276 274 273 274 276 277 278 276 274 273 270 269 269 269 268 269 272 275 271 265 268 273 274 280 288 290 287 285 285 286 287 288 289 289 289 289 288 288 288 288
235 237 236 236 240 242 243 246 247 245 242 238 238 243 244 242 240 236 238 244 247 249 249 246 245 246 244 241 239 240 242 243 244 244 247 251 255 260 264 266 269 273 276 280 283 283 278 274 276 276 274 277 280 281 280 275 270 270 269 270 271 271 270 270 271 272 270 269 275 278 277 282 289 288 282 280 282 284 284 284 285 285 285 284 284 284 285 285
234 235 235 236 239 240 241 242 242 243 242 239 240 244 244 244 245 240 237 244 247 244 243 242 241 242 245 246 246 247 248 249 251 253 256 258 259 261 265 267 270 273 275 277 280 280 274 269 272 274 271 272 276 276 273 271 272 273 271 270 270 270 271 272 271 272 274 275 279 281 277 278 282 279 275 276 277 278 280 281 282 283 282 281 281 282 283 284
233 233 234 235 237 238 239 240 239 240 242 244 245 246 245 246 247 240 234 243 249 248 246 247 249 250 253 257 258 258 257 258 260 261 261 261 262 263 264 266 267 270 271 272 273 271 266 258 261 268 268 268 272 274 276 281 281 273 271 272 274 275 277 278 277 278 281 280 277 274 272 273 274 272 271 273 275 277 279 280 281 280 279 280 281 282 283 283
Height
3180 3180 3180 3180 3180 3180 3180 3180 3180 3180 3179 3179 3179 3179 3179 3179 3179 3179 3178 3178 3178 3178 3177 3177 3177 3176 3176 3176 3176 3176 3176 3176 3176 3175 3174 3174 3174 3174 3173 3173 3173 3172 3172 3172 3171 3171 3171 3170 3170 3170 3169 3169 3169 3168 3168 3168 3167 3167 3166 3166 3167 3168 3168 3167 3166 3165 3164 3163 3162 3161 3159 3159 3160 3159 3156 3156 3157 3157 3158 3159 3158 3157 3156 3156 3155 3154 3153 3153
3179 3179 3179 3179 3179 3179 3179 3179 3179 3179 3178 3178 3178 3178 3178 3178 3178 3177 3177 3177 3177 3176 3176 3175 3175 3175 3175 3174 3174 3174 3174 3174 3174 3174 3173 3172 3172 3172 3172 3172 3171 3171 3170 3170 3170 3170 3170 3169 3169 3169 3168 3168 3168 3167 3167 3166 3166 3165 3165 3165 3164 3165 3165 3165 3164 3164 3162 3161 3160 3159 3158 3157 3158 3158 3155 3153 3154 3155 3155 3157 3157 3155 3154 3154 3153 3152 3151 3151
3178 3178 3178 3178 3178 3178 3178 3178 3178 3178 3178 3177 3177 3177 3177 3177 3177 3176 3176 3176 3175 3175 3175 3174 3174 3174 3173 3173 3173 3172 3173 3173 3172 3172 3171 3171 3171 3170 3170 3170 3170 3169 3169 3169 3169 3168 3168 3168 3168 3167 3167 3166 3166 3166 3165 3165 3165 3164 3163 3163 3162 3163 3162 3162 3161 3161 3160 3159 3158 3157 3156 3155 3155 3155 3153 3150 3151 3152 3153 3154 3154 3153 3152 3152 3151 3150 3148 3148
3177 3177 3177 3177 3177 3177 3177 3177 3177 3177 3176 3176 3176 3176 3176 3175 3175 3175 3175 3174 3174 3174 3173 3173 3173 3172 3172 3171 3171 3171 3171 3171 3171 3170 3169 3169 3169 3169 3169 3169 3168 3168 3167 3167 3167 3167 3167 3167 3166 3166 3165 3165 3164 3164 3164 3163 3163 3161 3160 3160 3161 3161 3160 3159 3159 3158 3158 3157 3155 3155 3154 3153 3153 3153 3151 3149 3147 3149 3152 3152 3151 3151 3150 3149 3148 3147 3146 3146
3175 3175 3175 3175 3175 3175 3175 3175 3175 3175 3175 3175 3175 3174 3174 3174 3174 3173 3173 3173 3173 3172 3172 3172 3171 3171 3170 3170 3170 3169 3170 3170 3169 3168 3167 3167 3167 3167 3167 3167 3166 3166 3166 3165 3166 3165 3165 3165 3165 3164 3164 3163 3162 3162 3162 3161 3161 3159 3157 3158 3159 3158 3157 3157 3157 3155 3155 3155 3153 3153 3152 3151 3150 3150 3149 3147 3143 3145 3150 3150 3149 3149 3147 3146 3145 3144 3144 3144
3173 3173 3173 3173 3173 3173 3173 3173 3173 3173 3173 3173 3173 3173 3173 3172 3172 3172 3172 3171 3171 3171 3170 3170 3169 3169 3169 3168 3168 3167 3168 3169 3168 3166 3166 3166 3166 3166 3165 3165 3164 3164 3164 3164 3164 3163 3164 3163 3163 3163 3162 3162 3161 3160 3160 3159 3159 3157 3155 3156 3156 3155 3154 3155 3154 3152 3152 3152 3151 3151 3149 3148 3147 3147 3147 3144 3141 3143 3147 3147 3146 3146 3145 3143 3142 3141 3141 3141
3171 3171 3171 3171 3171 3171 3171 3171 3171 3171 3171 3171 3171 3171 3171 3171 3170 3170 3170 3170 3169 3169 3169 3168 3168 3167 3167 3166 3166 3165 3165 3167 3167 3165 3164 3164 3164 3164 3163 3163 3162 3162 3162 3162 3162 3162 3162 3161 3161 3161 3160 3160 3159 3158 3158 3157 3156 3155 3153 3154 3153 3152 3151 3152 3151 3149 3149 3149 3149 3148 3146 3146 3145 3143 3143 3141 3140 3141 3142 3143 3143 3142 3142 3141 3140 3139 3138 3138
3169 3169 3169 3169 3169 3169 3169 3169 3169 3169 3169 3169 3169 3169 3169 3168 3168 3168 3168 3168 3167 3167 3167 3167 3166 3165 3165 3164 3163 3162 3162 3165 3166 3163 3163 3162 3162 3162 3161 3161 3161 3161 3161 3160 3160 3160 3160 3160 3159 3159 3158 3158 3157 3156 3155 3155 3154 3151 3150 3151 3151 3149 3148 3149 3148 3147 3146 3146 3145 3144 3143 3143 3143 3140 3137 3138 3140 3140 3139 3139 3139 3139 3138 3138 3137 3137 3136 3135
3167 3167 3167 3167 3167 3167 3167 3167 3167 3167 3167 3167 3167 3166 3166 3166 3166 3166 3166 3165 3165 3165 3165 3164 3164 3163 3163 3162 3161 3159 3160 3163 3163 3162 3161 3161 3160 3160 3159 3159 3159 3159 3159 3159 3158 3158 3158 3158 3158 3157 3157 3156 3155 3154 3153 3152 3151 3149 3147 3148 3147 3146 3146 3146 3145 3144 3143 3142 3141 3140 3140 3140 3140 3136 3132 3135 3138 3137 3136 3136 3136 3136 3135 3135 3134 3133 3133 3132
3164 3164 3164 3164 3164 3165 3165 3165 3165 3165 3165 3164 3164 3164 3164 3164 3164 3163 3163 3163 3163 3163 3163 3162 3162 3162 3161 3160 3158 3156 3159 3161 3161 3160 3160 3159 3159 3158 3157 3157 3157 3156 3156 3156 3156 3156 3156 3156 3155 3155 3155 3154 3152 3152 3151 3149 3148 3147 3146 3144 3144 3144 3143 3142 3141 3141 3141 3139 3137 3136 3136 3137 3137 3133 3130 3134 3136 3133 3133 3132 3132 3132 3132 3132 3131 3130 3130 3129
3162 3162 3162 3162 3162 3162 3162 3162 3162 3162 3162 3162 3162 3162 3162 3161 3161 3161 3161 3161 3161 3161 3161 3160 3160 3159 3159 3158 3156 3155 3157 3159 3158 3158 3158 3157 3157 3156 3155 3155 3154 3154 3154 3154 3154 3154 3154 3153 3153 3153 3153 3151 3150 3149 3148 3146 3145 3145 3143 3141 3141 3141 3140 3140 3138 3138 3138 3135 3134 3133 3131 3133 3134 3131 3129 3132 3132 3130 3130 3129 3128 3127 3128 3129 3128 3127 3127 3126
3160 3160 3160 3160 3160 3160 3160 3160 3160 3160 3160 3160 3159 3159 3159 3159 3159 3159 3158 3158 3158 3158 3158 3158 3158 3157 3156 3155 3154 3154 3155 3155 3155 3155 3155 3155 3154 3154 3153 3152 3152 3152 3151 3151 3151 3151 3151 3151 3151 3151 3150 3149 3149 3147 3144 3144 3143 3142 3141 3138 3138 3138 3136 3137 3136 3135 3135 3132 3130 3131 3128 3128 3130 3128 3127 3128 3127 3127 3127 3127 3126 3125 3125 3125 3124 3124 3123 3123
3157 3157 3157 3157 3157 3157 3157 3157 3157 3157 3157 3157 3157 3157 3157 3157 3156 3156 3156 3156 3156 3156 3156 3155 3155 3155 3154 3152 3152 3153 3153 3152 3152 3152 3152 3152 3152 3151 3150 3150 3149 3149 3149 3148 3148 3148 3148 3148 3148 3148 3147 3147 3147 3145 3142 3141 3140 3140 3140 3136 3135 3135 3133 3134 3134 3133 3133 3129 3129 3130 3125 3125 3127 3127 3127 3126 3124 3124 3124 3124 3124 3123 3122 3122 3121 3120 3120 3119
3154 3155 3155 3155 3155 3155 3155 3155 3155 3154 3154 3154 3154 3154 3154 3154 3154 3153 3153 3153 3153 3153 3153 3153 3153 3152 3151 3151 3150 3150 3150 3149 3149 3149 3149 3149 3148 3148 3148 3147 3147 3146 3146 3145 3145 3145 3145 3145 3145 3145 3145 3145 3144 3142 3140 3139 3137 3137 3137 3134 3133 3132 3130 3131 3131 3129 3129 3125 3126 3127 3122 3121 3124 3124 3125 3124 3122 3120 3119 3120 3120 3120 3120 3118 3117 3116 3115 3115
3151 3152 3152 3152 3152 3152 3152 3152 3152 3152 3152 3151 3151 3151 3151 3151 3150 3150 3150 3150 3150 3150 3150 3150 3150 3149 3148 3148 3148 3147 3147 3146 3146 3146 3146 3146 3145 3145 3145 3144 3144 3144 3143 3143 3143 3142 3142 3142 3142 3142 3142 3143 3142 3139 3138 3136 3136 3136 3134 3132 3132 3130 3128 3130 3128 3127 3126 3122 3122 3123 3119 3118 3120 3121 3122 3121 3119 3117 3116 3116 3117 3116 3116 3115 3114 3112 3110 3109
3148 3149 3149 3149 3149 3149 3149 3149 3149 3149 3149 3149 3149 3148 3148 3148 3147 3147 3147 3147 3147 3147 3147 3147 3147 3146 3145 3145 3146 3145 3144 3144 3143 3143 3143 3143 3142 3142 3142 3141 3141 3141 3140 3140 3140 3139 3140 3139 3139 3140 3140 3140 3140 3137 3136 3135 3134 3135 3132 3129 3130 3129 3127 3128 3128 3126 3125 3121 3119 3119 3115 3114 3116 3116 3118 3118 3117 3115 3113 3113 3113 3112 3112 3111 3110 3108 3105 3104
3145 3146 3146 3146 3146 3146 3146 3146 3146 3146 3146 3146 3145 3145 3145 3144 3144 3144 3144 3144 3144 3143 3143 3143 3143 3143 3141 3142 3143 3142 3142 3141 3141 3141 3141 3140 3139 3138 3138 3138 3138 3138 3138 3138 3137 3137 3137 3136 3136 3137 3137 3138 3138 3136 3135 3134 3133 3133 3132 3128 3127 3127 3126 3125 3125 3124 3123 3120 3118 3115 3111 3110 3111 3112 3113 3114 3114 3111 3110 3110 3109 3109 3108 3107 3105 3103 3101 3100
3142 3143 3143 3143 3143 3143 3143 3143 3143 3143 3143 3143 3142 3142 3142 3141 3141 3140 3140 3140 3140 3140 3140 3139 3140 3139 3138 3139 3139 3138 3139 3139 3138 3138 3138 3138 3137 3136 3135 3135 3135 3135 3135 3135 3134 3134 3134 3133 3133 3134 3135 3135 3134 3134 3133 3132 3132 3132 3131 3128 3125 3125 3124 3123 3123 3122 3121 3118 3116 3114 3110 3108 3109 3110 3110 3111 3111 3109 3107 3107 3105 3104 3104 3103 3100 3099 3098 3097
3139 3139 3139 3140 3140 3140 3141 3140 3140 3140 3140 3139 3139 3139 3139 3138 3138 3137 3137 3137 3137 3137 3137 3136 3137 3137 3136 3136 3135 3135 3136 3136 3135 3135 3135 3135 3134 3133 3133 3132 3132 3132 3132 3131 3130 3131 3132 3130 3130 3132 3133 3132 3132 3131 3130 3129 3130 3130 3128 3126 3124 3121 3120 3120 3120 3120 3119 3114 3112 3112 3108 3107 3107 3107 3107 3108 3108 3107 3105 3103 3101 3101 3100 3099 3096 3095 3095 3093
3136 3137 3137 3137 3137 3138 3138 3137 3137 3137 3137 3137 3136 3136 3136 3135 3135 3134 3133 3134 3134 3134 3134 3133 3132 3133 3133 3132 3132 3132 3132 3132 3132 3132 3132 3131 3131 3130 3129 3129 3129 3128 3128 3128 3127 3127 3129 3127 3125 3128 3130 3131 3131 3130 3128 3127 3128 3127 3125 3123 3121 3119 3117 3117 3117 3117 3116 3110 3108 3108 3106 3104 3104 3103 3104 3104 3104 3104 3101 3099 3098 3098 3097 3095 3092 3091 3090 3088
3133 3133 3134 3134 3134 3135 3135 3134 3134 3134 3134 3134 3134 3133 3132 3132 3132 3130 3129 3130 3131 3131 3130 3130 3128 3128 3129 3128 3128 3130 3129 3128 3128 3128 3128 3127 3127 3126 3124 3125 3125 3125 3125 3125 3124 3124 3125 3123 3122 3125 3128 3128 3129 3128 3127 3125 3124 3124 3122 3119 3118 3116 3114 3114 3114 3113 3113 3108 3105 3106 3103 3101 3102 3101 3101 3101 3102 3101 3099 3098 3096 3094 3094 3092 3089 3087 3085 3083
3130 3130 3131 3131 3131 3132 3132 3131 3131 3131 3131 3131 3131 3130 3130 3129 3129 3127 3125 3124 3126 3128 3127 3126 3125 3124 3126 3124 3124 3126 3125 3124 3124 3124 3125 3123 3123 3123 3121 3121 3123 3122 3121 3121 3122 3122 3120 3118 3119 3123 3125 3124 3123 3123 3123 3122 3121 3120 3119 3117 3115 3114 3112 3111 3111 3110 3109 3106 3103 3103 3100 3098 3099 3098 3098 3098 3100 3099 3097 3096 3093 3090 3089 3087 3085 3083 3081 3080
3127 3127 3127 3128 3128 3128 3128 3128 3128 3128 3128 3128 3128 3128 3127 3127 3126 3124 3123 3120 3120 3123 3123 3122 3122 3121 3122 3120 3120 3122 3120 3120 3120 3119 3120 3120 3119 3120 3118 3118 3120 3120 3118 3119 3120 3120 3117 3116 3116 3119 3120 3120 3119 3119 3119 3118 3117 3116 3115 3115 3112 3112 3111 3109 3109 3108 3107 3104 3101 3100 3097 3095 3096 3096 3096 3096 3096 3097 3094 3091 3088 3085 3084 3082 3080 3079 3078 3078
3124 3124 3124 3125 3125 3125 3125 3125 3124 3125 3125 3125 3125 3125 3124 3124 3124 3122 3121 3117 3114 3118 3120 3118 3117 3117 3117 3116 3116 3117 3115 3116 3115 3113 3116 3117 3115 3116 3116 3116 3117 3117 3115 3116 3117 3115 3114 3115 3115 3116 3116 3116 3116 3116 3116 3115 3113 3112 3112 3112 3110 3110 3110 3108 3107 3105 3103 3101 3099 3098 3095 3093 3095 3095 3094 3094 3093 3093 3091 3086 3082 3081 3080 3078 3077 3077 3077 3077
3121 3121 3121 3122 3122 3122 3122 3122 3121 3122 3122 3122 3122 3122 3122 3122 3121 3121 3120 3116 3110 3111 3114 3114 3112 3111 3111 3111 3110 3111 3110 3111 3111 3110 3112 3113 3113 3113 3113 3113 3114 3114 3113 3114 3115 3111 3111 3113 3113 3113 3113 3113 3112 3112 3113 3112 3110 3110 3110 3110 3108 3107 3107 3105 3104 3102 3100 3099 3097 3097 3095 3091 3092 3094 3092 3092 3091 3089 3087 3083 3080 3078 3077 3075 3075 3076 3076 3076
3117 3117 3118 3118 3119 3119 3119 3119 3120 3120 3120 3120 3120 3120 3120 3120 3119 3119 3118 3115 3109 3107 3109 3109 3108 3107 3107 3107 3106 3107 3107 3107 3107 3108 3109 3109 3110 3111 3111 3111 3111 3112 3112 3112 3112 3109 3109 3110 3110 3110 3110 3110 3110 3110 3111 3110 3108 3107 3107 3108 3107 3106 3104 3103 3102 3101 3099 3098 3095 3096 3096 3089 3087 3090 3089 3089 3089 3087 3084 3081 3079 3077 3076 3076 3076 3075 3076 3076
3113 3114 3114 3115 3116 3117 3116 3116 3117 3118 3117 3117 3117 3117 3118 3118 3118 3118 3118 3115 3108 3104 3106 3106 3105 3105 3105 3105 3105 3105 3105 3105 3105 3106 3106 3107 3107 3108 3108 3109 3109 3109 3109 3110 3109 3107 3107 3108 3108 3108 3108 3108 3108 3108 3109 3109 3108 3106 3105 3106 3106 3104 3103 3101 3101 3100 3097 3096 3092 3092 3095 3089 3084 3085 3085 3085 3086 3085 3081 3080 3078 3077 3077 3077 3077 3077 3076 3076
3110 3110 3111 3111 3112 3113 3113 3114 3114 3115 3115 3115 3115 3115 3115 3116 3117 3117 3119 3116 3106 3102 3104 3104 3104 3104 3104 3104 3104 3104 3104 3104 3104 3104 3105 3105 3106 3106 3107 3107 3107 3107 3107 3108 3107 3105 3105 3106 3106 3106 3106 3106 3106 3107 3107 3108 3107 3104 3103 3104 3104 3103 3102 3101 3100 3099 3097 3094 3089 3088 3092 3089 3083 3082 3083 3082 3083 3083 3079 3077 3077 3076 3077 3077 3077 3078 3077 3076
3106 3106 3107 3107 3108 3109 3109 3110 3111 3111 3112 3112 3112 3113 3113 3114 3115 3116 3119 3115 3103 3100 3103 3103 3104 3104 3103 3103 3103 3103 3104 3103 3104 3103 3104 3104 3104 3105 3105 3106 3106 3105 3105 3105 3104 3104 3104 3104 3104 3104 3104 3104 3104 3104 3105 3105 3104 3103 3102 3101 3101 3101 3100 3100 3098 3097 3096 3092 3086 3086 3089 3087 3082 3080 3082 3081 3081 3081 3078 3076 3075 3075 3076 3077 3077 3077 3076 3076
3103 3103 3103 3103 3104 3105 3106 3107 3108 3108 3108 3109 3109 3110 3110 3111 3113 3115 3115 3108 3100 3100 3101 3101 3102 3102 3102 3102 3102 3102 3103 3102 3102 3102 3103 3103 3103 3103 3104 3104 3104 3103 3103 3102 3101 3101 3101 3101 3101 3102 3102 3102 3102 3102 3102 3102 3101 3101 3100 3099 3099 3098 3097 3097 3095 3095 3095 3088 3082 3083 3085 3085 3082 3079 3080 3080 3079 3080 3077 3075 3074 3073 3074 3075 3075 3075 3075 3075
3099 3099 3099 3100 3100 3101 3102 3103 3104 3105 3105 3105 3106 3107 3107 3108 3110 3110 3105 3099 3099 3100 3099 3099 3100 3100 3100 3101 3101 3101 3101 3101 3101 3101 3101 3101 3101 3102 3102 3103 3102 3101 3101 3100 3099 3099 3098 3098 3098 3099 3100 3100 3100 3100 3099 3099 3100 3099 3098 3098 3097 3096 3095 3094 3093 3094 3093 3084 3080 3081 3082 3083 3081 3077 3079 3079 3077 3078 3078 3074 3072 3072 3073 3073 3074 3074 3073 3073
3095 3095 3096 3096 3097 3098 3099 3100 3101 3101 3101 3102 3103 3103 3104 3105 3103 3100 3097 3097 3100 3098 3096 3097 3098 3098 3099 3099 3099 3100 3099 3100 3100 3099 3100 3100 3099 3100 3101 3102 3102 3101 3100 3099 3098 3096 3096 3096 3096 3096 3097 3098 3098 3097 3097 3096 3097 3097 3097 3097 3097 3095 3093 3091 3090 3090 3087 3081 3079 3080 3081 3080 3076 3075 3078 3078 3076 3077 3077 3073 3071 3071 3072 3072 3072 3071 3070 3070
3091 3092 3092 3093 3094 3095 3096 3097 3097 3098 3098 3099 3100 3100 3101 3101 3095 3091 3093 3097 3098 3096 3095 3096 3096 3096 3097 3097 3098 3098 3098 3098 3098 3098 3098 3098 3098 3098 3099 3099 3100 3100 3099 3098 3097 3095 3094 3093 3093 3094 3094 3095 3095 3096 3096 3095 3095 3095 3095 3096 3096 3094 3092 3089 3087 3084 3081 3079 3078 3079 3080 3077 3072 3072 3073 3074 3073 3073 3072 3071 3070 3070 3070 3070 3070 3069 3068 3068
3088 3088 3089 3090 3091 3092 3093 3094 3094 3095 3095 3096 3096 3097 3097 3094 3088 3088 3091 3093 3095 3095 3095 3095 3095 3095 3095 3095 3096 3096 3097 3097 3097 3097 3097 3097 3097 3096 3097 3097 3097 3098 3098 3097 3096 3095 3093 3091 3090 3091 3092 3092 3093 3094 3095 3094 3093 3093 3093 3094 3093 3092 3091 3088 3086 3083 3079 3078 3078 3078 3077 3073 3070 3069 3068 3069 3070 3068 3068 3068 3069 3068 3067 3066 3066 3065 3065 3065
3084 3085 3086 3086 3088 3089 3090 3091 3092 3093 3093 3093 3094 3094 3091 3087 3086 3088 3089 3091 3092 3093 3093 3094 3094 3094 3093 3093 3094 3094 3096 3095 3095 3096 3096 3095 3095 3095 3096 3096 3096 3096 3096 3096 3095 3094 3093 3091 3089 3089 3090 3090 3091 3092 3093 3093 3092 3090 3089 3090 3089 3089 3089 3086 3084 3082 3080 3078 3076 3075 3073 3069 3069 3068 3066 3066 3066 3065 3065 3065 3066 3065 3063 3062 3062 3062 3062 3061
3081 3082 3082 3083 3085 3086 3087 3088 3089 3090 3091 3091 3092 3089 3084 3083 3086 3087 3087 3088 3090 3090 3091 3092 3092 3092 3092 3092 3091 3092 3093 3093 3093 3093 3092 3092 3092 3092 3092 3092 3093 3093 3094 3094 3093 3092 3091 3088 3087 3087 3087 3088 3088 3088 3090 3091 3090 3088 3087 3087 3086 3086 3087 3085 3082 3081 3082 3078 3073 3071 3067 3065 3068 3067 3062 3061 3061 3060 3061 3061 3061 3060 3060 3059 3059 3059 3058 3057
3078 3079 3079 3081 3082 3083 3084 3085 3086 3087 3087 3088 3087 3081 3078 3080 3083 3084 3085 3086 3087 3088 3090 3090 3090 3089 3090 3090 3090 3090 3090 3090 3091 3090 3090 3090 3089 3087 3088 3089 3089 3089 3090 3090 3090 3090 3089 3085 3084 3085 3085 3084 3086 3085 3086 3087 3086 3085 3084 3084 3084 3084 3084 3083 3081 3080 3079 3074 3068 3067 3065 3063 3065 3063 3058 3057 3057 3056 3056 3056 3056 3056 3056 3057 3056 3055 3054 3054
3075 3076 3076 3078 3080 3080 3081 3082 3082 3083 3084 3083 3079 3076 3075 3077 3079 3081 3082 3083 3085 3086 3087 3087 3087 3087 3088 3088 3089 3089 3088 3088 3089 3089 3088 3089 3087 3084 3085 3086 3086 3086 3086 3087 3087 3087 3086 3083 3081 3082 3081 3080 3082 3082 3081 3081 3082 3082 3081 3081 3082 3081 3080 3080 3080 3078 3076 3070 3065 3064 3062 3061 3062 3060 3057 3055 3054 3053 3052 3053 3054 3053 3054 3053 3053 3053 3052 3051
3072 3072 3073 3075 3077 3077 3077 3078 3079 3079 3079 3077 3074 3073 3073 3073 3075 3077 3079 3080 3082 3083 3083 3084 3084 3085 3085 3086 3086 3087 3086 3086 3087 3087 3086 3087 3085 3083 3083 3084 3083 3083 3083 3084 3084 3084 3084 3082 3079 3079 3079 3078 3078 3079 3078 3078 3079 3079 3078 3078 3079 3078 3077 3077 3076 3074 3072 3067 3064 3063 3060 3058 3058 3058 3056 3053 3051 3051 3051 3052 3052 3052 3051 3051 3050 3050 3049 3049
3069 3069 3068 3071 3073 3073 3074 3075 3075 3075 3073 3071 3070 3071 3071 3071 3073 3074 3076 3077 3078 3078 3079 3080 3081 3081 3081 3082 3083 3084 3083 3082 3083 3084 3084 3084 3083 3082 3081 3081 3081 3081 3081 3082 3082 3081 3081 3080 3077 3076 3076 3075 3075 3076 3076 3076 3077 3076 3075 3075 3075 3075 3074 3073 3070 3069 3068 3064 3063 3063 3058 3055 3057 3057 3054 3051 3050 3050 3050 3050 3050 3049 3049 3048 3048 3048 3047 3046
3066 3064 3064 3067 3069 3070 3070 3070 3069 3068 3068 3067 3067 3068 3069 3070 3070 3071 3072 3073 3073 3074 3075 3075 3077 3077 3077 3078 3079 3080 3080 3078 3078 3080 3079 3079 3080 3079 3078 3078 3078 3078 3078 3079 3079 3078 3078 3077 3074 3074 3074 3072 3071 3073 3074 3074 3074 3073 3073 3073 3073 3073 3073 3071 3066 3064 3064 3061 3060 3060 3054 3051 3055 3055 3051 3049 3049 3048 3047 3047 3047 3046 3046 3045 3044 3044 3043 3043
3061 3060 3060 3063 3064 3065 3066 3064 3064 3064 3063 3062 3063 3065 3066 3066 3066 3067 3068 3068 3069 3070 3071 3071 3071 3072 3073 3074 3075 3076 3075 3074 3074 3075 3074 3075 3076 3076 3075 3075 3075 3075 3076 3076 3075 3075 3074 3073 3071 3069 3069 3068 3068 3070 3069 3069 3070 3070 3070 3070 3071 3070 3070 3068 3063 3061 3061 3057 3056 3055 3050 3047 3051 3051 3049 3048 3047 3046 3044 3043 3043 3043 3042 3041 3040 3039 3038 3037
3055 3055 3056 3058 3058 3060 3060 3058 3058 3058 3057 3057 3059 3061 3061 3061 3062 3064 3064 3064 3065 3066 3067 3067 3067 3068 3068 3069 3070 3071 3071 3070 3069 3070 3070 3070 3071 3071 3071 3071 3072 3072 3073 3072 3071 3071 3070 3070 3068 3065 3065 3065 3065 3066 3064 3063 3064 3065 3065 3066 3066 3065 3064 3063 3060 3059 3057 3054 3054 3052 3045 3044 3047 3047 3046 3046 3045 3044 3041 3039 3039 3038 3037 3036 3035 3035 3034 3032
3050 3050 3051 3053 3053 3054 3053 3052 3052 3052 3052 3054 3056 3056 3057 3058 3058 3059 3060 3060 3061 3062 3062 3062 3064 3064 3064 3066 3066 3066 3067 3067 3065 3065 3066 3066 3067 3067 3067 3068 3069 3069 3069 3069 3068 3068 3067 3067 3065 3063 3062 3062 3062 3062 3060 3059 3060 3060 3060 3062 3061 3060 3060 3058 3056 3057 3053 3050 3051 3048 3042 3042 3045 3044 3044 3043 3041 3040 3039 3037 3036 3034 3033 3032 3031 3030 3029 3028
3044 3044 3045 3046 3047 3047 3046 3046 3048 3048 3049 3051 3051 3052 3054 3054 3053 3054 3056 3056 3057 3058 3058 3058 3060 3061 3061 3062 3062 3062 3063 3063 3062 3062 3062 3062 3063 3064 3064 3065 3065 3065 3066 3065 3065 3065 3064 3064 3063 3063 3061 3060 3059 3059 3058 3057 3057 3057 3058 3059 3058 3058 3057 3055 3054 3053 3049 3045 3047 3045 3040 3040 3042 3042 3042 3041 3037 3036 3035 3034 3033 3032 3030 3030 3028 3027 3025 3023
3039 3039 3039 3040 3041 3041 3040 3042 3043 3044 3045 3047 3047 3048 3049 3049 3050 3050 3051 3052 3053 3054 3055 3055 3056 3057 3057 3057 3057 3057 3058 3059 3059 3059 3058 3059 3060 3060 3061 3061 3061 3061 3061 3061 3062 3062 3061 3059 3059 3059 3058 3057 3056 3056 3056 3056 3055 3055 3056 3056 3055 3054 3053 3053 3051 3048 3046 3044 3042 3041 3038 3035 3036 3038 3039 3038 3036 3032 3031 3031 3030 3029 3028 3027 3026 3024 3021 3019
3034 3033 3033 3035 3036 3035 3036 3037 3038 3039 3041 3043 3043 3043 3044 3045 3047 3047 3047 3048 3048 3050 3051 3051 3052 3053 3053 3053 3054 3054 3055 3056 3056 3056 3055 3056 3057 3057 3057 3057 3057 3057 3057 3057 3058 3058 3057 3055 3055 3055 3053 3053 3053 3052 3053 3054 3052 3052 3052 3051 3050 3050 3049 3048 3043 3041 3045 3043 3036 3036 3037 3032 3031 3033 3033 3034 3033 3030 3027 3026 3025 3024 3023 3022 3020 3019 3017 3015
3028 3028 3029 3030 3031 3031 3031 3032 3034 3036 3038 3039 3039 3040 3040 3042 3043 3044 3044 3043 3044 3046 3047 3047 3048 3049 3049 3050 3051 3051 3051 3052 3052 3052 3052 3052 3053 3053 3053 3053 3053 3053 3053 3053 3053 3054 3054 3051 3051 3051 3049 3048 3049 3048 3049 3050 3048 3048 3048 3046 3045 3045 3042 3040 3037 3038 3043 3039 3032 3033 3033 3028 3027 3029 3028 3028 3028 3026 3023 3022 3021 3020 3017 3016 3014 3013 3011 3010
3024 3024 3025 3026 3026 3027 3028 3029 3031 3033 3034 3035 3035 3035 3036 3037 3039 3040 3040 3039 3040 3041 3042 3043 3044 3045 3045 3047 3047 3047 3048 3049 3048 3049 3049 3049 3049 3049 3049 3050 3049 3049 3049 3049 3050 3050 3050 3047 3047 3046 3044 3043 3044 3043 3044 3045 3044 3043 3042 3041 3041 3038 3035 3034 3035 3036 3036 3033 3029 3030 3027 3023 3023 3023 3022 3022 3022 3020 3018 3017 3016 3015 3013 3011 3010 3008 3007 3005
3020 3020 3022 3022 3022 3024 3025 3026 3028 3029 3030 3031 3031 3030 3032 3033 3034 3036 3036 3036 3036 3037 3039 3039 3040 3041 3041 3042 3043 3044 3044 3045 3045 3045 3045 3045 3045 3046 3046 3046 3046 3045 3045 3045 3046 3046 3046 3044 3043 3043 3041 3039 3039 3039 3039 3040 3039 3037 3036 3036 3033 3030 3029 3031 3031 3031 3030 3026 3024 3024 3020 3017 3018 3017 3016 3016 3016 3015 3013 3012 3010 3009 3007 3006 3005 3003 3002 3000
3016 3017 3019 3019 3019 3021 3022 3023 3024 3025 3025 3026 3025 3026 3028 3029 3030 3032 3032 3032 3032 3034 3035 3036 3036 3037 3038 3038 3039 3040 3041 3041 3041 3041 3042 3041 3041 3042 3042 3042 3042 3042 3041 3042 3042 3042 3043 3041 3039 3040 3037 3033 3034 3035 3035 3035 3034 3032 3029 3027 3024 3023 3024 3025 3025 3025 3024 3020 3018 3018 3015 3013 3014 3013 3011 3010 3009 3009 3008 3006 3005 3004 3002 3001 3000 2999 2998 2996
3013 3014 3015 3016 3016 3017 3018 3019 3021 3021 3020 3021 3022 3023 3024 3024 3026 3028 3028 3028 3028 3030 3031 3032 3032 3034 3034 3034 3034 3035 3035 3036 3037 3037 3038 3037 3037 3038 3038 3038 3038 3038 3037 3038 3038 3038 3039 3038 3037 3037 3033 3029 3031 3031 3030 3031 3030 3023 3019 3018 3019 3019 3019 3018 3018 3018 3018 3016 3014 3012 3010 3010 3009 3008 3007 3005 3003 3003 3003 3001 3000 2998 2996 2995 2995 2995 2994 2993